Location: Augustenthal
(51.7167°N, 10.2833°E)
Time: 20:17:46
(UTC+00:00)

Cosmos 1400 Rocket - Pass Details

Date: 18 May 2021
Orbit: 520 x 568 km, 81.2° (Epoch: 21 June)

Event Time Altitude Azimuth Distance (km) Brightness Sun altitude
Rises 22:26:47 0° 353° (N) 2,764 8.1 -17.7°
Reaches altitude 10° 22:29:11 10° 4° (N) 1,857 6.7 -17.8°
Maximum altitude 22:32:52 32° 68° (ENE) 977 4.1 -17.9°
Enters shadow 22:34:36 22° 112° (ESE) 1,221 4.3 -18.0°
